www.pogodaiklimat.ru

Погода и климат >> Архив погоды >> Монголия >> Толбо


ПОГОДА в Толбо

  • Прогноз погоды в Толбо
  • Монитор погоды в Толбо

АРХИВ ПОГОДЫ в Толбо

Время (UTC), дата Ветер
(напр.,м/с)
 
Видим.   Явления Облачность Т
(С)
Тd
(С)
f
(%)
Тe
(С)
Тes
(С)
Комфортность P
(гПа)
Po
(гПа)
Тmin
(С)
Tmax
(С)
R
(мм)
R24
(мм)
S
(см)
09 9.09 ЮЗ 2 20 км 9/5 1000 м
[Cu Sc Ac lent Ci]
+12.6 -1.4 38 +12 +14 1008.0 783.8
12 9.09 ЮЗ 2 20 км в посл. час дождь 8/8 1000 м
[Cu Sc]
+8.2 +2.5 67 +7 +7 1012.4 783.6 +13.5 0.0
15 9.09 штиль 0 н/о слаб. дождь 10/0 600 м
[As op]
+7.3 +4.1 80 +7 +7 1013.3 783.6
18 9.09 штиль 0 н/о дождь 10/0 600 м
[As op]
+3.3 +0.7 83 +2 +2 1017.0 784.1
21 9.09 ЮЗ 2 н/о в посл. час дождь 10/0 600 м
[As op]
+4.3 +0.9 79 +2 +2 1014.8 783.5
00 10.09 штиль 0 10 км дождь 10/0 600 м
[As op]
+4.6 +2.1 84 +4 +4 1013.8 783.0 +3.2 14
03 10.09 штиль 0 2000 м слаб. дождь 10/0 600 м
[As op]
+6.3 +3.7 83 +5 +7 1014.2 784.0
06 10.09 штиль 0 20 км {дождь} 10/0 600 м
[As op]
+8.6 +3.8 72 +8 +11 1011.5 783.6
09 10.09 штиль 0 2000 м слаб. дождь 10/0 600 м
[As op]
+6.0 +1.2 71 +5 +7 1014.2 784.5
12 10.09 штиль 0 4000 м в посл. час дождь 10/0 600 м
[As op]
+4.6 +2.4 86 +4 +4 1017.8 785.6 +9.0 7
15 10.09 штиль 0 н/о 10/10 1000 м
[Sc]
+4.2 +1.9 85 +3 +3 1018.7 786.4
18 10.09 штиль 0 20 км 9/9 1000 м
[Cu Sc]
+4.0 +1.4 83 +3 +3 1018.7 786.4
21 10.09 З 4 20 км 5/5 1000 м
[Cu Sc]
+4.3 -2.8 60 0 0 1020.0 786.9
00 11.09 ЮЗ 2 20 км 9/6 1000 м
[Cu Sc Ac lent]
+4.1 -5.0 51 +2 +2 1020.0 787.3 +3.6
03 11.09 ЮЗ 4 20 км 9/6 1000 м
[Sc Ac lent Ci]
+5.4 -5.0 47 +2 +3 1019.0 787.5
06 11.09 З 6 20 км 8/6 1000 м
[Cu Sc Ac lent]
+5.6 -3.8 51 +1 +2 1018.1 787.1
09 11.09 З 6 20 км 8/5 1000 м
[Cu med, cong Ac lent]
+5.9 -4.2 48 +2 +2 1018.1 787.1
12 11.09 Ю 4 20 км 4/0
[Ac lent Ci]
+4.5 -3.6 56 +1 +1 1021.3 787.6 +6.8
15 11.09 ЮЗ 2 20 км 8/8 1000 м
[Cu Sc]
+3.3 -3.8 60 +1 +1 1023.5 788.9
18 11.09 ЮЗ 2 20 км 6/6 1000 м
[Sc]
+2.9 -4.4 59 0 0 1023.5 789.3
21 11.09 ЮЗ 4 20 км 5/5 1000 м
[Sc]
+2.1 -4.0 64 -2 -2 1023.1 788.5
00 12.09 штиль 0 10 км осадки на расстоянии 10/0 600 м
[As op]
+2.2 -3.0 68 +2 +2 1021.8 787.3 +0.9
03 12.09 ЮЗ 2 20 км 8/8 1000 м
[Sc]
+4.0 -4.3 55 +2 +3 1020.0 787.4
06 12.09 штиль 0 10 км осадки на расстоянии 8/8 1000 м
[Cu Sc]
+1.0 -2.2 79 0 +3 1024.1 788.3
09 12.09 штиль 0 20 км 9/5 1000 м
[Cu med, cong Ac lent]
+3.2 -3.2 63 +3 +4 1022.2 788.3
12 12.09 штиль 0 20 км 3/0
[Ac lent]
+3.7 -7.3 44 +3 +3 1022.6 788.8 +4.1 2
15 12.09 З 2 20 км ясно +1.9 -7.4 50 -1 -1 1025.7 790.0
18 12.09 штиль 0 20 км ясно +0.3 -6.3 61 -0 -0 1028.9 790.6
21 12.09 штиль 0 20 км ясно -1.3 -4.6 78 -2 -2 1028.6 790.1
00 13.09 штиль 0 20 км 4/0
[Ci]
-2.7 -4.6 87 -4 -4 1029.3 788.8 -2.9
03 13.09 ЮЗ 2 20 км 6/0
[Ac lent Ci]
+1.0 -6.2 59 -2 +2 1026.7 790.2
06 13.09 Ю 2 20 км 6/0
[Ac lent Ci sp]
+5.2 -9.0 35 +4 +11 1023.0 790.4
09 13.09 Ю 2 20 км 4/0
[Ac lent]
+7.1 -9.0 31 +6 +10 1018.5 788.2
12 13.09 ЮЗ 4 20 км 8/3 1000 м
[Sc Ac As]
+5.1 -7.2 41 +2 +2 1020.4 788.0 +7.4
15 13.09 ЮЗ 2 20 км 8/8 1000 м
[Sc Ac As]
+3.8 -5.8 49 +2 +2 1021.3 788.3
18 13.09 ЮЗ 2 20 км 5/0
[Ac lent Ci fib]
+2.5 -6.1 53 0 0 1024.4 788.6
21 13.09 штиль 0 20 км 3/0
[Ac lent]
-0.5 -6.8 62 -1 -1 1026.3 788.6
00 14.09 ЮЗ 2 20 км 3/0
[Ac lent]
+0.1 -6.8 60 -3 -3 1027.6 789.0 -0.8
03 14.09 штиль 0 20 км 6/0
[Ac lent Ci]
+4.9 -4.6 50 +5 +9 1021.6 789.4
06 14.09 штиль 0 20 км 8/5 1000 м
[Cu med, cong Ci]
+7.8 -3.6 44 +8 +14 1018.9 788.9
09 14.09 штиль 0 20 км 8/6 1000 м
[Cu med, cong Ci]
+8.7 -4.1 40 +9 +11 1016.6 787.9
12 14.09 ЮЗ 2 20 км 4/0
[Ac cuf]
+6.6 -6.0 40 +5 +5 1019.8 788.6 +9.1
15 14.09 штиль 0 20 км 4/0
[Ac lent]
+5.1 -3.4 54 +5 +5 1021.6 789.1
18 14.09 штиль 0 20 км 3/0
[Ac cast]
+1.8 -2.9 71 +1 +1 1024.4 789.5
21 14.09 штиль 0 20 км ясно -0.8 -3.6 81 -2 -2 1027.3 789.5
00 15.09 штиль 0 20 км ясно -2.0 -4.8 81 -3 -3 1029.6 789.8 -2.3
03 15.09 штиль 0 20 км ясно +4.8 -4.3 52 +4 +12 1023.0 790.2
06 15.09 штиль 0 20 км ясно +8.8 -6.4 33 +9 +23 опасность
простуды
1018.9 788.9
09 15.09 штиль 0 20 км 3/3
[Cu hum Ci fib]
+11.1 -8.2 25 +11 +16 1014.8 788.0
12 15.09 штиль 0 20 км ясно +9.3 -4.4 38 +9 +9 1015.3 787.1 +11.7
15 15.09 штиль 0 20 км ясно +5.9 -2.7 54 +6 +6 1019.4 788.3
18 15.09 штиль 0 20 км ясно +2.4 -3.2 66 +2 +2 1024.4 788.8
21 15.09 штиль 0 20 км ясно -0.5 -3.3 81 -2 -2 1026.3 788.8
00 16.09 штиль 0 20 км ясно -1.7 -3.8 86 -3 -3 1028.3 789.4 -2.1
03 16.09 штиль 0 20 км ясно +5.2 -3.4 54 +5 +12 1023.0 789.6

 

Местоположение метеостанции Толбо (Монголия): широта 48.42 долгота 90.30 высота над уровнем моря 2101 м.

В архиве по умолчанию представлена погода в Толбо за последнюю неделю. Архивные данные за месяц целиком и за предыдущие месяцы, начиная с января 2011 года, Вы можете получить, выбрав интересующий диапазон дат из раскрывающегося списка и нажав кнопку "Ввод!".


*Определитесь, кто Вы:
робот инопланетянин человек

Внимание! Время в таблицах - всемирное. Для получения местного времени необходимо прибавить поправку, которая равна 8 ч.

Смотрите также архив погоды в соседних городах и на ближайших метеорологических станциях:

Погода в Углие (Монголия) (63 км)
Погода в Ховде (Монголия) (104 км)
Погода в Умнегове (Монголия) (124 км)
Погода в Ногооннууре (Монголия) (131 км)
Погода в Ташанте (Алтай, Россия) (165 км)
Погода в Фуюне (Синьцзян-Уйгурский автономный район, Китай) (170 км)
Погода в Жаргаланте (Монголия) (177 км)
Погода в Алтае (Синьцзян-Уйгурский автономный район, Китай) (182 км)
Погода в Улаангоме (Монголия) (201 км)
Погода в Завхане (Монголия) (211 км)

Пояснения к столбцам:

Ветер - указаны скорость ветра в м/с - средняя за 10 мин, порывы в срок и между сроками (в фигурных скобках) и направление, откуда дует ветер: С - северный, СВ - северо-восточный, В - восточный, ЮВ - юго-восточный, Ю - южный, ЮЗ - юго-западный, З - западный, СЗ - северо-западный.
Видимость - горизонтальная дальность видимости в метрах или километрах. При видимости от 1 до 10 км при отсутствии осадков обычно наблюдается дымка, при ухудшении видимости до 1 км и менее - туман. В сухую погоду видимость может ухудшаться дымом, пылью или мглою.
Явления - указаны атмосферные явления, наблюдавшиеся в срок или в последний час перед сроком; фигурными скобками обозначены явления, наблюдавшиеся между сроками (за 1-3 часа до срока); квадратными скобками обозначены град или гололедные отложения с указанием их диаметра в мм.
Облачность - указаны через наклонную черту общая и нижняя облачность в баллах и высота нижней границы облаков в метрах; квадратными скобками обозначены формы облаков: Ci - перистые, Cs - перисто-слоистые, Cc - перисто-кучевые, Ac - высококучевые, As - высокослоистые, Sc - слоисто-кучевые, Ns - слоисто-дождевые, Cu - кучевые, Cb - кучево-дождевые. Подробнее классификацию облаков см. в Атласе облаков (PDF).
T - Температура воздуха - температура, измеренная на высоте 2 м над землей.
Td - Температура точки росы - температура, при понижении до которой содержащийся в воздухе водяной пар достигнет насыщения.
f - Относительная влажность воздуха - влажноcть воздуха, измеренная на высоте 2 м над землей.
Te - Эффективная температура - температура, которую ощущает одетый по сезону человек в тени. Характеристика душности погоды. При расчете учитывается влияние влажности воздуха и скорости ветра на теплоощущения человека.
Tes - Эффективная температура на солнце - температура, которую ощущает человек, с поправкой на солнечный нагрев. Характеристика знойности погоды. Зависит от высоты солнца над горизонтом, облачности и скорости ветра. Ночью, в пасмурную погоду, а также при ветре 12 м/с и более поправка равна нулю.
P - Атмосферное давление - приведенное к уровню моря атмосферное давление.
Po - Атмосферное давление - измеренное на уровне метеостанции атмосферное давление.
Tmin - Минимальная температура - минимум температуры воздуха на высоте 2 м над землей.
Tmax - Максимальная температура - максимум температуры воздуха на высоте 2 м над землей.
R - Количество осадков - Количество выпавших осадков за период времени, мм. При наведении курсора мыши на число - период времени, за который выпало указанное количество осадков.
R24 - Количество осадков - Количество выпавших осадков за 24 часа, мм.
S - Снежный покров - Высота снежного покрова, см. При наведении курсора мыши на число - состояние снежного покрова и степень покрытия местности в баллах.